Estación Meteorológica de la Universidad de Murcia
Estación Meteorológica de la Universidad de Murcia
Universidad de Murcia
 

Temperatura y Humedad del sueloTemperatura y Humedad del suelo

 

Temperatura del suelo máxima: 43,4 ºC a las 14:02:00 del día 24/06/2017
Temperatura del suelo mínima: 20,4 ºC a las 06:25:00 del día 24/06/2017
Humedad del suelo máxima: 33,6 % a las 19:09:00 del día 24/06/2017
Humedad del suelo mínima: 20,4 % a las 10:49:00 del día 24/06/2017

||Temperatura del suelo máxima últimos meses|| ---- ||Temperatura del suelo mínima últimos meses||

----||Humedad del suelo máxima últimos meses|| ---- ||Humedad del suelo mínima últimos meses||


Temperatura del suelo máxima

  • 1 - 43,4 ºC del día 24/06/2017
  • 2 - 43,5 ºC del día 23/06/2017
  • 3 - 39,6 ºC del día 22/06/2017
  • 4 - 39,2 ºC del día 21/06/2017
  • 5 - 38,5 ºC del día 20/06/2017
  • 6 - 36,9 ºC del día 19/06/2017
  • 7 - 38,7 ºC del día 18/06/2017
  • 8 - 38,8 ºC del día 17/06/2017
  • 9 - 39,4 ºC del día 16/06/2017
  • 10 - 39,6 ºC del día 15/06/2017
  • 11 - 38 ºC del día 14/06/2017
  • 12 - 36,6 ºC del día 13/06/2017
  • 13 - 36,9 ºC del día 12/06/2017
  • 14 - 37,7 ºC del día 11/06/2017
  • 15 - 34,6 ºC del día 10/06/2017
  • 16 - 32,9 ºC del día 09/06/2017
  • 17 - 33,3 ºC del día 08/06/2017
  • 18 - 32,3 ºC del día 07/06/2017
  • 19 - 37,7 ºC del día 06/06/2017
  • 20 - 33,2 ºC del día 05/06/2017
  • 21 - 33,3 ºC del día 04/06/2017
  • 22 - 35,6 ºC del día 03/06/2017
  • 23 - 34,4 ºC del día 02/06/2017
  • 24 - 33,7 ºC del día 01/06/2017
  • 25 - 32,9 ºC del día 31/05/2017
  • 26 - 32,2 ºC del día 30/05/2017
  • 27 - 32,9 ºC del día 29/05/2017
  • 28 - 32,4 ºC del día 28/05/2017
  • 29 - 33,2 ºC del día 27/05/2017
  • 30 - 33,8 ºC del día 26/05/2017
  • 31 - 34 ºC del día 25/05/2017
  • 32 - 32,1 ºC del día 24/05/2017
  • 33 - 32,1 ºC del día 23/05/2017
  • 34 - 32,7 ºC del día 22/05/2017
  • 35 - 29,1 ºC del día 21/05/2017
  • 36 - 30 ºC del día 20/05/2017
  • 37 - 29,3 ºC del día 19/05/2017
  • 38 - 32,6 ºC del día 18/05/2017
  • 39 - 31,6 ºC del día 17/05/2017
  • 40 - 32,8 ºC del día 16/05/2017
  • 41 - 32,8 ºC del día 15/05/2017
  • 42 - 32,8 ºC del día 14/05/2017
  • 43 - 32,2 ºC del día 13/05/2017
  • 44 - 29,2 ºC del día 12/05/2017
  • 45 - 28 ºC del día 11/05/2017
  • 46 - 32,2 ºC del día 10/05/2017
  • 47 - 31,6 ºC del día 09/05/2017
  • 48 - 32 ºC del día 08/05/2017
  • 49 - 31 ºC del día 07/05/2017
  • 50 - 30,6 ºC del día 06/05/2017
  • 51 - 28,5 ºC del día 05/05/2017
  • 52 - 28,3 ºC del día 04/05/2017
  • 53 - 28,4 ºC del día 03/05/2017
  • 54 - 28,7 ºC del día 02/05/2017
  • 55 - 18,3 ºC del día 01/05/2017
  • 56 - 18,3 ºC del día 30/04/2017
  • 57 - 18,3 ºC del día 29/04/2017
  • 58 - 18,3 ºC del día 28/04/2017
  • 59 - 18,3 ºC del día 27/04/2017
  • 60 - 30,5 ºC del día 26/04/2017

||Volver al inicio de la página||


Temperatura del suelo mínima

  • 1 - 20,4 ºC del día 24/06/2017
  • 2 - 20,1 ºC del día 23/06/2017
  • 3 - 19,3 ºC del día 22/06/2017
  • 4 - 21 ºC del día 21/06/2017
  • 5 - 20,5 ºC del día 20/06/2017
  • 6 - 19,4 ºC del día 19/06/2017
  • 7 - 20,8 ºC del día 18/06/2017
  • 8 - 19,1 ºC del día 17/06/2017
  • 9 - 20,9 ºC del día 16/06/2017
  • 10 - 18,2 ºC del día 15/06/2017
  • 11 - 18,7 ºC del día 14/06/2017
  • 12 - 18,7 ºC del día 13/06/2017
  • 13 - 16,3 ºC del día 12/06/2017
  • 14 - 17,5 ºC del día 11/06/2017
  • 15 - 19,1 ºC del día 10/06/2017
  • 16 - 18,2 ºC del día 09/06/2017
  • 17 - 17,7 ºC del día 08/06/2017
  • 18 - 18,4 ºC del día 07/06/2017
  • 19 - 16,1 ºC del día 06/06/2017
  • 20 - 16,5 ºC del día 05/06/2017
  • 21 - 19,6 ºC del día 04/06/2017
  • 22 - 17,2 ºC del día 03/06/2017
  • 23 - 16,5 ºC del día 02/06/2017
  • 24 - 17 ºC del día 01/06/2017
  • 25 - 17 ºC del día 31/05/2017
  • 26 - 17,6 ºC del día 30/05/2017
  • 27 - 17,2 ºC del día 29/05/2017
  • 28 - 17 ºC del día 28/05/2017
  • 29 - 16,6 ºC del día 27/05/2017
  • 30 - 16,4 ºC del día 26/05/2017
  • 31 - 15,1 ºC del día 25/05/2017
  • 32 - 14,7 ºC del día 24/05/2017
  • 33 - 14,6 ºC del día 23/05/2017
  • 34 - 16 ºC del día 22/05/2017
  • 35 - 14,3 ºC del día 21/05/2017
  • 36 - 12,6 ºC del día 20/05/2017
  • 37 - 16,1 ºC del día 19/05/2017
  • 38 - 12,7 ºC del día 18/05/2017
  • 39 - 13,7 ºC del día 17/05/2017
  • 40 - 15,1 ºC del día 16/05/2017
  • 41 - 15,1 ºC del día 15/05/2017
  • 42 - 15,1 ºC del día 14/05/2017
  • 43 - 13,2 ºC del día 13/05/2017
  • 44 - 14,6 ºC del día 12/05/2017
  • 45 - 14,9 ºC del día 11/05/2017
  • 46 - 14,5 ºC del día 10/05/2017
  • 47 - 12,5 ºC del día 09/05/2017
  • 48 - 12,6 ºC del día 08/05/2017
  • 49 - 12,7 ºC del día 07/05/2017
  • 50 - 13,6 ºC del día 06/05/2017
  • 51 - 14,4 ºC del día 05/05/2017
  • 52 - 11,2 ºC del día 04/05/2017
  • 53 - 9,8 ºC del día 03/05/2017
  • 54 - 10,3 ºC del día 02/05/2017
  • 55 - 11,9 ºC del día 01/05/2017
  • 56 - 11,9 ºC del día 30/04/2017
  • 57 - 11,9 ºC del día 29/04/2017
  • 58 - 11,9 ºC del día 28/04/2017
  • 59 - 11,9 ºC del día 27/04/2017
  • 60 - 12,3 ºC del día 26/04/2017

||Volver al inicio de la página||


Humedad del suelo máxima

  • 1 - 33,6 % del día 24/06/2017
  • 2 - 34,3 % del día 23/06/2017
  • 3 - 34,4 % del día 22/06/2017
  • 4 - 33,9 % del día 21/06/2017
  • 5 - 34 % del día 20/06/2017
  • 6 - 33,6 % del día 19/06/2017
  • 7 - 34,1 % del día 18/06/2017
  • 8 - 33,9 % del día 17/06/2017
  • 9 - 34,4 % del día 16/06/2017
  • 10 - 35,8 % del día 15/06/2017
  • 11 - 34,8 % del día 14/06/2017
  • 12 - 33,8 % del día 13/06/2017
  • 13 - 34,4 % del día 12/06/2017
  • 14 - 33,7 % del día 11/06/2017
  • 15 - 38,4 % del día 10/06/2017
  • 16 - 33,4 % del día 09/06/2017
  • 17 - 34,5 % del día 08/06/2017
  • 18 - 35 % del día 07/06/2017
  • 19 - 35,8 % del día 06/06/2017
  • 20 - 35,4 % del día 05/06/2017
  • 21 - 34 % del día 04/06/2017
  • 22 - 34,4 % del día 03/06/2017
  • 23 - 34,4 % del día 02/06/2017
  • 24 - 35,6 % del día 01/06/2017
  • 25 - 37,3 % del día 31/05/2017
  • 26 - 37,4 % del día 30/05/2017
  • 27 - 35,3 % del día 29/05/2017
  • 28 - 34,9 % del día 28/05/2017
  • 29 - 35,9 % del día 27/05/2017
  • 30 - 36,1 % del día 26/05/2017
  • 31 - 36,1 % del día 25/05/2017
  • 32 - 40,2 % del día 24/05/2017
  • 33 - 34,8 % del día 23/05/2017
  • 34 - 43,7 % del día 22/05/2017
  • 35 - 34 % del día 21/05/2017
  • 36 - 35,5 % del día 20/05/2017
  • 37 - 35,3 % del día 19/05/2017
  • 38 - 37,4 % del día 18/05/2017
  • 39 - 37 % del día 17/05/2017
  • 40 - 41 % del día 16/05/2017
  • 41 - 41 % del día 15/05/2017
  • 42 - 41 % del día 14/05/2017
  • 43 - 38,8 % del día 13/05/2017
  • 44 - 38,8 % del día 12/05/2017
  • 45 - 38,9 % del día 11/05/2017
  • 46 - 39,8 % del día 10/05/2017
  • 47 - 41 % del día 09/05/2017
  • 48 - 40,2 % del día 08/05/2017
  • 49 - 41,7 % del día 07/05/2017
  • 50 - 41,7 % del día 06/05/2017
  • 51 - 44,4 % del día 05/05/2017
  • 52 - 41,9 % del día 04/05/2017
  • 53 - 45,7 % del día 03/05/2017
  • 54 - 43,1 % del día 02/05/2017
  • 55 - 41,9 % del día 01/05/2017
  • 56 - 41,9 % del día 30/04/2017
  • 57 - 41,9 % del día 29/04/2017
  • 58 - 41,9 % del día 28/04/2017
  • 59 - 41,9 % del día 27/04/2017
  • 60 - 42,5 % del día 26/04/2017

||Volver al inicio de la página||


Humedad del suelo mínima

  • 1 - 20,4 % del día 24/06/2017
  • 2 - 20,5 % del día 23/06/2017
  • 3 - 20,5 % del día 22/06/2017
  • 4 - 20,8 % del día 21/06/2017
  • 5 - 20,9 % del día 20/06/2017
  • 6 - 21 % del día 19/06/2017
  • 7 - 21,1 % del día 18/06/2017
  • 8 - 21,1 % del día 17/06/2017
  • 9 - 21,2 % del día 16/06/2017
  • 10 - 21,2 % del día 15/06/2017
  • 11 - 21,2 % del día 14/06/2017
  • 12 - 21,4 % del día 13/06/2017
  • 13 - 21,3 % del día 12/06/2017
  • 14 - 20,2 % del día 11/06/2017
  • 15 - 21,4 % del día 10/06/2017
  • 16 - 21,6 % del día 09/06/2017
  • 17 - 21,5 % del día 08/06/2017
  • 18 - 21,9 % del día 07/06/2017
  • 19 - 21,6 % del día 06/06/2017
  • 20 - 21,6 % del día 05/06/2017
  • 21 - 21,9 % del día 04/06/2017
  • 22 - 22,1 % del día 03/06/2017
  • 23 - 22,1 % del día 02/06/2017
  • 24 - 22,3 % del día 01/06/2017
  • 25 - 22,1 % del día 31/05/2017
  • 26 - 22,4 % del día 30/05/2017
  • 27 - 22,5 % del día 29/05/2017
  • 28 - 22,5 % del día 28/05/2017
  • 29 - 22,5 % del día 27/05/2017
  • 30 - 22,6 % del día 26/05/2017
  • 31 - 22,7 % del día 25/05/2017
  • 32 - 22,7 % del día 24/05/2017
  • 33 - 22,9 % del día 23/05/2017
  • 34 - 22,7 % del día 22/05/2017
  • 35 - 23,1 % del día 21/05/2017
  • 36 - 23,2 % del día 20/05/2017
  • 37 - 23,2 % del día 19/05/2017
  • 38 - 23,5 % del día 18/05/2017
  • 39 - 23,6 % del día 17/05/2017
  • 40 - 24,5 % del día 16/05/2017
  • 41 - 24,5 % del día 15/05/2017
  • 42 - 24,5 % del día 14/05/2017
  • 43 - 24,6 % del día 13/05/2017
  • 44 - 25,1 % del día 12/05/2017
  • 45 - 25,2 % del día 11/05/2017
  • 46 - 25,6 % del día 10/05/2017
  • 47 - 26,1 % del día 09/05/2017
  • 48 - 26,2 % del día 08/05/2017
  • 49 - 26,2 % del día 07/05/2017
  • 50 - 26,8 % del día 06/05/2017
  • 51 - 26,9 % del día 05/05/2017
  • 52 - 27,2 % del día 04/05/2017
  • 53 - 27,3 % del día 03/05/2017
  • 54 - 27,7 % del día 02/05/2017
  • 55 - 26 % del día 01/05/2017
  • 56 - 26 % del día 30/04/2017
  • 57 - 26 % del día 29/04/2017
  • 58 - 26 % del día 28/04/2017
  • 59 - 26 % del día 27/04/2017
  • 60 - 27,1 % del día 26/04/2017

 

|| Temperatura Ambiente|| Humedad relativa|| Velocidad y dirección del viento|| Precipitación|| Radiación Solar Global y PAR|| Presión atmosférica|| Más información|| Volver a la página principal|| Volver al inicio de la página||


Estación Meteorológica de la Universidad de Murcia
http://estacion.um.es/
Informacion actualizada a: 25/06/2017 a las 20:52:00